VRJMG VNKT-ZULS

Flight info

Callsign VRJMG
Flight time 0h 59m
Altitude 33000
Route IGRIS1E KIMTI B345 NONIM/K0882S0950 B345 IKUBI IKU28A
Aircraft A306/H-SDE3FGHIRWY/LB1

Departure

Time 2026-04-16 05:57
Airport Tribhuvan International Airport (VNKT)

Arrival

Time 2026-04-16 06:56
Airport Lhasa Gonggar International Airport (ZULS)
Time Latitude Longitude Altitude Speed Heading
2026-04-16 05:19 27.69813 85.35770 4397 ft 0 kts 292°
2026-04-16 05:49 27.69812 85.35774 4397 ft 3 kts 292°
2026-04-16 05:50 27.69803 85.35795 4397 ft 3 kts 298°
2026-04-16 05:50 27.69793 85.35814 4397 ft 3 kts 306°
2026-04-16 05:50 27.69781 85.35831 4397 ft 3 kts 322°
2026-04-16 05:50 27.69766 85.35842 4397 ft 3 kts 355°
2026-04-16 05:51 27.69754 85.35842 4397 ft 1 kts 22°
2026-04-16 05:52 27.69777 85.35852 4397 ft 7 kts 22°
2026-04-16 05:53 27.69838 85.35880 4397 ft 11 kts 22°
2026-04-16 05:53 27.69903 85.35910 4397 ft 9 kts 22°
2026-04-16 05:53 27.69957 85.35935 4397 ft 7 kts 21°
2026-04-16 05:53 27.70002 85.35954 4397 ft 8 kts 21°
2026-04-16 05:54 27.70069 85.35984 4397 ft 13 kts 23°
2026-04-16 05:54 27.70164 85.36029 4398 ft 17 kts 22°
2026-04-16 05:54 27.70288 85.36085 4398 ft 22 kts 22°
2026-04-16 05:54 27.70429 85.36150 4398 ft 21 kts 22°
2026-04-16 05:55 27.70549 85.36214 4398 ft 18 kts 40°
2026-04-16 05:55 27.70573 85.36307 4401 ft 7 kts 139°
2026-04-16 05:55 27.70517 85.36306 4401 ft 15 kts 198°
2026-04-16 05:55 27.70248 85.36185 4399 ft 71 kts 201°
2026-04-16 05:56 27.69620 85.35901 4399 ft 122 kts 201°
2026-04-16 05:56 27.68684 85.35474 4399 ft 167 kts 202°
2026-04-16 05:56 27.67505 85.34938 4595 ft 194 kts 202°
2026-04-16 05:56 27.66196 85.34268 4951 ft 213 kts 215°
2026-04-16 05:57 27.65245 85.32991 5678 ft 217 kts 249°
2026-04-16 05:57 27.64922 85.31372 6552 ft 216 kts 266°
2026-04-16 05:57 27.65145 85.29637 7061 ft 233 kts 291°
2026-04-16 05:57 27.66065 85.28084 7656 ft 246 kts 314°
2026-04-16 05:58 27.67525 85.26985 8192 ft 261 kts 338°
2026-04-16 05:58 27.69318 85.26607 8931 ft 267 kts
2026-04-16 05:58 27.71119 85.27044 9753 ft 270 kts 24°
2026-04-16 05:58 27.72657 85.28279 10508 ft 273 kts 48°
2026-04-16 05:59 27.73679 85.30059 11220 ft 277 kts 62°
2026-04-16 05:59 27.74506 85.32045 11917 ft 282 kts 64°
2026-04-16 05:59 27.75300 85.34095 12624 ft 286 kts 68°
2026-04-16 05:59 27.75784 85.36284 13317 ft 291 kts 83°
2026-04-16 06:00 27.75679 85.38583 13973 ft 297 kts 102°
2026-04-16 06:00 27.74926 85.40758 14538 ft 302 kts 122°
2026-04-16 06:00 27.73568 85.42578 15073 ft 305 kts 142°
2026-04-16 06:00 27.71767 85.43832 15612 ft 307 kts 157°
2026-04-16 06:01 27.69803 85.44846 16171 ft 313 kts 156°
2026-04-16 06:01 27.67871 85.46103 16430 ft 330 kts 146°
2026-04-16 06:01 27.66083 85.47841 16639 ft 348 kts 134°
2026-04-16 06:01 27.64573 85.50059 16853 ft 364 kts 122°
2026-04-16 06:02 27.62624 85.55559 17282 ft 393 kts 107°
2026-04-16 06:02 27.61841 85.58525 17479 ft 406 kts 106°
2026-04-16 06:02 27.61026 85.61621 17692 ft 418 kts 106°
2026-04-16 06:03 27.60184 85.64803 17888 ft 430 kts 106°
2026-04-16 06:03 27.59292 85.68063 18111 ft 441 kts 108°
2026-04-16 06:03 27.58131 85.71302 18281 ft 450 kts 115°
2026-04-16 06:03 27.56751 85.74497 18567 ft 456 kts 117°
2026-04-16 06:04 27.55331 85.77706 18880 ft 460 kts 117°
2026-04-16 06:04 27.53892 85.80954 19182 ft 463 kts 117°
2026-04-16 06:04 27.52526 85.84251 19494 ft 465 kts 112°
2026-04-16 06:04 27.51524 85.87731 19792 ft 468 kts 103°
2026-04-16 06:05 27.51028 85.91366 20106 ft 470 kts 94°
2026-04-16 06:05 27.50846 85.95046 20405 ft 473 kts 91°
2026-04-16 06:05 27.50716 85.98761 20675 ft 476 kts 91°
2026-04-16 06:05 27.50587 86.02443 21004 ft 477 kts 91°
2026-04-16 06:06 27.50451 86.06233 21309 ft 480 kts 91°
2026-04-16 06:06 27.50314 86.09961 21540 ft 483 kts 91°
2026-04-16 06:06 27.50172 86.13744 21899 ft 485 kts 91°
2026-04-16 06:06 27.50026 86.17561 22186 ft 488 kts 91°
2026-04-16 06:07 27.49879 86.21380 22509 ft 490 kts 90°
2026-04-16 06:07 27.49709 86.25222 22823 ft 492 kts 92°
2026-04-16 06:07 27.49266 86.29062 23059 ft 496 kts 98°
2026-04-16 06:07 27.48627 86.32883 23364 ft 498 kts 100°
2026-04-16 06:08 27.47891 86.36714 23617 ft 502 kts 101°
2026-04-16 06:08 27.47117 86.40571 23854 ft 505 kts 102°
2026-04-16 06:08 27.46336 86.44438 24066 ft 508 kts 101°
2026-04-16 06:08 27.45559 86.48331 24289 ft 510 kts 101°
2026-04-16 06:09 27.44791 86.52231 24538 ft 511 kts 101°
2026-04-16 06:09 27.44027 86.56146 24764 ft 513 kts 101°
2026-04-16 06:09 27.43275 86.60028 24977 ft 515 kts 101°
2026-04-16 06:09 27.42512 86.63981 25205 ft 517 kts 101°
2026-04-16 06:10 27.41748 86.67945 25403 ft 519 kts 101°
2026-04-16 06:10 27.40977 86.71925 25613 ft 521 kts 101°
2026-04-16 06:10 27.40201 86.75915 25868 ft 523 kts 101°
2026-04-16 06:10 27.39423 86.79916 26060 ft 525 kts 101°
2026-04-16 06:11 27.38636 86.83938 26329 ft 526 kts 101°
2026-04-16 06:11 27.37847 86.87970 26481 ft 529 kts 101°
2026-04-16 06:11 27.37054 86.92024 26713 ft 530 kts 101°
2026-04-16 06:11 27.36263 86.96079 27030 ft 532 kts 101°
2026-04-16 06:12 27.35470 87.00144 27332 ft 531 kts 101°
2026-04-16 06:12 27.34788 87.04219 27635 ft 529 kts 95°
2026-04-16 06:12 27.34649 87.08347 27958 ft 526 kts 84°
2026-04-16 06:12 27.35178 87.12379 28303 ft 519 kts 72°
2026-04-16 06:13 27.36390 87.16165 28688 ft 510 kts 60°
2026-04-16 06:13 27.38210 87.19539 29037 ft 500 kts 47°
2026-04-16 06:13 27.40500 87.22353 29331 ft 491 kts 36°
2026-04-16 06:13 27.43225 87.24615 29599 ft 482 kts 24°
2026-04-16 06:14 27.46208 87.26286 29972 ft 476 kts 18°
2026-04-16 06:14 27.49244 87.27756 30323 ft 473 kts 16°
2026-04-16 06:14 27.52292 87.29145 30657 ft 472 kts 15°
2026-04-16 06:14 27.55344 87.30506 30968 ft 471 kts 15°
2026-04-16 06:15 27.58389 87.31864 31252 ft 470 kts 16°
2026-04-16 06:15 27.61428 87.33234 31504 ft 470 kts 16°
2026-04-16 06:15 27.64461 87.34617 31751 ft 469 kts 16°
2026-04-16 06:15 27.67487 87.36009 31967 ft 469 kts 16°
2026-04-16 06:16 27.70511 87.37402 32252 ft 469 kts 16°
2026-04-16 06:16 27.73530 87.38793 32569 ft 468 kts 16°
2026-04-16 06:16 27.76544 87.40186 32838 ft 468 kts 16°
2026-04-16 06:16 27.79553 87.41591 33065 ft 470 kts 18°
2026-04-16 06:17 27.82456 87.43332 33200 ft 476 kts 27°
2026-04-16 06:17 27.85082 87.45569 33216 ft 481 kts 36°
2026-04-16 06:17 27.89868 87.50878 33210 ft 482 kts 40°
2026-04-16 06:18 27.94483 87.56398 33209 ft 483 kts 41°
2026-04-16 06:18 27.99067 87.61906 33190 ft 483 kts 41°
2026-04-16 06:19 28.03715 87.67453 33188 ft 483 kts 40°
2026-04-16 06:19 28.08350 87.72970 33165 ft 483 kts 40°
2026-04-16 06:20 28.12990 87.78493 33154 ft 483 kts 40°
2026-04-16 06:20 28.17593 87.83980 33129 ft 483 kts 40°
2026-04-16 06:21 28.22219 87.89505 33110 ft 482 kts 40°
2026-04-16 06:21 28.26835 87.95018 33187 ft 482 kts 40°
2026-04-16 06:22 28.31455 88.00556 33171 ft 482 kts 40°
2026-04-16 06:22 28.36068 88.06083 33161 ft 482 kts 40°
2026-04-16 06:23 28.40673 88.11603 33154 ft 482 kts 40°
2026-04-16 06:23 28.45288 88.17145 33153 ft 482 kts 40°
2026-04-16 06:24 28.49879 88.22674 33152 ft 481 kts 40°
2026-04-16 06:24 28.54450 88.28184 33153 ft 481 kts 40°
2026-04-16 06:25 28.59042 88.33724 33157 ft 481 kts 40°
2026-04-16 06:25 28.63633 88.39272 33160 ft 480 kts 40°
2026-04-16 06:26 28.68208 88.44809 33150 ft 480 kts 40°
2026-04-16 06:26 28.72776 88.50341 33143 ft 479 kts 40°
2026-04-16 06:27 28.77341 88.55882 33136 ft 479 kts 40°
2026-04-16 06:27 28.81902 88.61423 33132 ft 479 kts 40°
2026-04-16 06:28 28.86464 88.66971 33123 ft 480 kts 40°
2026-04-16 06:28 28.91027 88.72544 33106 ft 480 kts 40°
2026-04-16 06:29 28.95589 88.78114 33089 ft 481 kts 40°
2026-04-16 06:29 29.00125 88.83657 33083 ft 480 kts 40°
2026-04-16 06:30 29.04694 88.89244 33075 ft 481 kts 40°
2026-04-16 06:30 29.09256 88.94837 33070 ft 481 kts 40°
2026-04-16 06:31 29.13820 89.00442 33064 ft 481 kts 40°
2026-04-16 06:31 29.18387 89.06050 33062 ft 481 kts 40°
2026-04-16 06:32 29.22177 89.10709 33066 ft 481 kts 40°
2026-04-16 06:32 29.26739 89.16331 33066 ft 481 kts 40°
2026-04-16 06:33 29.31220 89.22030 33061 ft 486 kts 45°
2026-04-16 06:33 29.33584 89.26451 33067 ft 498 kts 59°
2026-04-16 06:33 29.34439 89.28955 33071 ft 505 kts 67°
2026-04-16 06:34 29.35177 89.32926 33075 ft 514 kts 79°
2026-04-16 06:34 29.35280 89.37042 33079 ft 519 kts 87°
2026-04-16 06:34 29.35030 89.45281 33087 ft 520 kts 88°
2026-04-16 06:35 29.34766 89.53567 33093 ft 520 kts 88°
2026-04-16 06:35 29.34512 89.61865 33112 ft 521 kts 88°
2026-04-16 06:36 29.34260 89.70158 33096 ft 520 kts 88°
2026-04-16 06:36 29.34002 89.78429 33137 ft 520 kts 88°
2026-04-16 06:37 29.33740 89.86704 33125 ft 520 kts 88°
2026-04-16 06:37 29.33476 89.94999 33133 ft 521 kts 88°
2026-04-16 06:38 29.33206 90.03275 33134 ft 519 kts 88°
2026-04-16 06:38 29.32934 90.11506 33140 ft 520 kts 88°
2026-04-16 06:39 29.32653 90.19798 33146 ft 521 kts 88°
2026-04-16 06:39 29.32365 90.28088 33151 ft 520 kts 88°
2026-04-16 06:40 29.32074 90.36372 33154 ft 520 kts 88°
2026-04-16 06:40 29.31776 90.44653 33150 ft 520 kts 89°
2026-04-16 06:41 29.31475 90.52935 33137 ft 519 kts 89°
2026-04-16 06:41 29.31323 90.57065 32525 ft 519 kts 89°
2026-04-16 06:41 29.31171 90.61208 31624 ft 521 kts 89°
2026-04-16 06:42 29.31017 90.65273 31320 ft 510 kts 90°
2026-04-16 06:42 29.30862 90.69281 31199 ft 496 kts 90°
2026-04-16 06:42 29.30712 90.73188 30976 ft 485 kts 90°
2026-04-16 06:42 29.30564 90.77004 30766 ft 474 kts 90°
2026-04-16 06:43 29.30419 90.80733 30547 ft 464 kts 90°
2026-04-16 06:43 29.30277 90.84395 30336 ft 455 kts 90°
2026-04-16 06:43 29.30136 90.87981 30136 ft 446 kts 90°
2026-04-16 06:43 29.29998 90.91498 29909 ft 438 kts 90°
2026-04-16 06:44 29.29860 90.94978 29707 ft 437 kts 90°
2026-04-16 06:44 29.29721 90.98458 29507 ft 437 kts 91°
2026-04-16 06:44 29.29339 91.01891 29280 ft 432 kts 99°
2026-04-16 06:44 29.28754 91.05251 28899 ft 428 kts 101°
2026-04-16 06:45 29.28148 91.08574 28560 ft 425 kts 101°
2026-04-16 06:45 29.27548 91.11872 28229 ft 421 kts 101°
2026-04-16 06:45 29.26960 91.15134 27944 ft 416 kts 101°
2026-04-16 06:45 29.26379 91.18368 27620 ft 412 kts 101°
2026-04-16 06:46 29.25805 91.21571 27309 ft 409 kts 101°
2026-04-16 06:46 29.25237 91.24744 26996 ft 405 kts 101°
2026-04-16 06:46 29.24676 91.27879 26471 ft 399 kts 101°
2026-04-16 06:46 29.24125 91.30944 26004 ft 393 kts 101°
2026-04-16 06:47 29.23586 91.33942 25603 ft 378 kts 101°
2026-04-16 06:47 29.23066 91.36873 25172 ft 372 kts 99°
2026-04-16 06:47 29.23102 91.39773 24756 ft 358 kts 73°
2026-04-16 06:47 29.24134 91.42234 24510 ft 334 kts 46°
2026-04-16 06:48 29.25883 91.43805 24183 ft 309 kts 17°
2026-04-16 06:48 29.27907 91.44194 23706 ft 288 kts 348°
2026-04-16 06:48 29.29721 91.43401 22866 ft 280 kts 318°
2026-04-16 06:48 29.30855 91.41636 21996 ft 278 kts 288°
2026-04-16 06:49 29.31190 91.39453 21257 ft 279 kts 272°
2026-04-16 06:49 29.31079 91.37234 20588 ft 279 kts 265°
2026-04-16 06:49 29.30887 91.35022 19953 ft 278 kts 265°
2026-04-16 06:49 29.30740 91.32814 19336 ft 277 kts 268°
2026-04-16 06:50 29.30660 91.30638 18730 ft 276 kts 269°
2026-04-16 06:50 29.30603 91.28445 18120 ft 275 kts 269°
2026-04-16 06:50 29.30569 91.26256 17523 ft 273 kts 270°
2026-04-16 06:50 29.30562 91.24095 16933 ft 271 kts 270°
2026-04-16 06:51 29.30570 91.21936 16366 ft 270 kts 270°
2026-04-16 06:51 29.30576 91.19789 15853 ft 271 kts 270°
2026-04-16 06:51 29.30556 91.17645 15449 ft 267 kts 269°
2026-04-16 06:51 29.30507 91.15553 15148 ft 257 kts 268°
2026-04-16 06:52 29.30474 91.13565 14909 ft 243 kts 269°
2026-04-16 06:52 29.30450 91.11660 14611 ft 235 kts 269°
2026-04-16 06:52 29.30422 91.09807 14338 ft 228 kts 269°
2026-04-16 06:52 29.30395 91.08036 14126 ft 215 kts 269°
2026-04-16 06:53 29.30371 91.06396 13937 ft 197 kts 270°
2026-04-16 06:53 29.30351 91.04877 13811 ft 186 kts 269°
2026-04-16 06:53 29.30307 91.03398 13538 ft 186 kts 269°
2026-04-16 06:53 29.30289 91.01915 13238 ft 186 kts 270°
2026-04-16 06:54 29.30273 91.00467 12895 ft 182 kts 269°
2026-04-16 06:54 29.30252 90.99040 12544 ft 176 kts 270°
2026-04-16 06:54 29.30245 90.97651 12289 ft 171 kts 269°
2026-04-16 06:54 29.30225 90.96291 12090 ft 171 kts 269°
2026-04-16 06:55 29.30213 90.94924 11887 ft 172 kts 269°
2026-04-16 06:55 29.30189 90.93570 11685 ft 166 kts 269°
2026-04-16 06:55 29.30164 90.92267 11545 ft 159 kts 269°
2026-04-16 06:55 29.30148 90.91147 11550 ft 117 kts 269°
2026-04-16 06:56 29.30139 90.90409 11542 ft 68 kts 269°
2026-04-16 06:56 29.30133 90.89925 11559 ft 53 kts 269°
2026-04-16 06:56 29.30022 90.89608 11548 ft 38 kts 242°
2026-04-16 06:56 29.29966 90.89340 11542 ft 31 kts 269°
2026-04-16 06:57 29.29963 90.89112 11555 ft 27 kts 268°
2026-04-16 06:57 29.29960 90.88910 11562 ft 23 kts 269°
2026-04-16 06:57 29.29898 90.88771 11548 ft 19 kts 223°
2026-04-16 06:57 29.29801 90.88701 11547 ft 15 kts 186°
2026-04-16 06:58 29.29712 90.88707 11554 ft 11 kts 178°
2026-04-16 06:58 29.29644 90.88709 11549 ft 8 kts 178°
2026-04-16 06:58 29.29591 90.88711 11556 ft 8 kts 174°
2026-04-16 06:58 29.29531 90.88749 11559 ft 12 kts 119°
2026-04-16 06:59 29.29503 90.88855 11548 ft 15 kts 92°
2026-04-16 06:59 29.29504 90.88960 11548 ft 12 kts 89°
2026-04-16 06:59 29.29506 90.89043 11545 ft 9 kts 88°
2026-04-16 06:59 29.29508 90.89105 11548 ft 7 kts 88°
2026-04-16 07:00 29.29510 90.89156 11549 ft 5 kts 88°
2026-04-16 07:00 29.29507 90.89184 11548 ft 2 kts 109°
2026-04-16 07:00 29.29504 90.89189 11549 ft 0 kts 118°
2026-04-16 07:01 29.29475 90.89196 11554 ft 3 kts 176°
2026-04-16 07:01 29.29461 90.89197 11545 ft 0 kts 176°
2026-04-16 07:02 29.29438 90.89199 11550 ft 4 kts 176°
2026-04-16 07:02 29.29419 90.89200 11538 ft 1 kts 177°
2026-04-16 07:02 29.29397 90.89199 11546 ft 8 kts 182°
2026-04-16 07:02 29.29337 90.89187 11544 ft 7 kts 195°
2026-04-16 07:03 29.29297 90.89174 11540 ft 5 kts 196°
2026-04-16 07:03 29.29273 90.89159 11550 ft 3 kts 220°
2026-04-16 07:03 29.29266 90.89139 11545 ft 3 kts 262°
2026-04-16 07:03 29.29267 90.89125 11541 ft 0 kts 277°
2026-04-16 07:04 29.29269 90.89112 11547 ft 6 kts 278°
2026-04-16 07:04 29.29276 90.89075 11544 ft 1 kts 283°
2026-04-16 07:04 29.29279 90.89064 11549 ft 0 kts 283°
2026-04-16 07:04 29.29279 90.89063 11549 ft 0 kts 283°